Location: Newark
(51.0500°N, 12.4500°E)
Time: 10:18:07
(UTC+00:00)

Tiros 1 - Pass Details

Date: 23 February 2020
Orbit: 630 x 664 km, 48.4° (Epoch: 06 April)

Event Time Altitude Azimuth Distance (km) Brightness Sun altitude
Rises 03:06:41 0° 255° (WSW) 2,923 - -29.0°
Reaches altitude 10° 03:09:02 10° 252° (WSW) 2,012 - -28.6°
Maximum altitude 03:13:35 61° 173° (S) 720 - -27.9°
Exits shadow 03:14:45 45° 118° (ESE) 865 8.0 -27.8°
Drops below altitude 10° 03:18:08 10° 93° (E) 2,009 10.5 -27.3°
Sets 03:20:28 0° 90° (E) 2,917 11.6 -26.9°
